This demonstration page uses our WeatherBlox Daily Observations layout. Learn more.

Left ArrowRight Arrow

39.92423, -83.80882

Hourly Observations for January 17, 2021

Temp ( °F °C ) Dew Point ( °F °C ) Humidity (%) Winds ( mph kmh ) Pressure ( in mb ) Visibility ( mi km ) Precip ( " mm )
12:56 am 00:56 Cloudy 33 0.6 33 0.6 100 100 W 13 20 29.74 1007 10 16.0934 0.001 0.001
1:56 am 01:56 Cloudy with Light Rain 33 0.6 33 0.6 100 100 WSW 12 19 29.75 1008 10 16.0934 0.001 0.001
2:56 am 02:56 Cloudy with Light Snow 33 0.6 33 0.6 100 100 W 14 22 29.77 1008 5 8.0467 0.001 0.001
3:30 am 03:30 Cloudy with Light Snow 34 1 34 1 100 100 WSW 13 20 29.79 1009 4 6.43736 0.001 0.001
3:56 am 03:56 Cloudy with Light Snow 33 0.6 33 0.6 100 100 WSW 14 22 29.77 1008 5 8.0467 0.001 0.001
4:16 am 04:16 Cloudy with Light Snow 34 1 34 1 100 100 WSW 13 20 29.78 1008 4 6.43736 0.001 0.001
4:56 am 04:56 Cloudy with Light Snow 33 0.6 33 0.6 100 100 WSW 9 15 29.76 1008 6 9.65604 0.001 0.001
5:56 am 05:56 Cloudy with Light Snow 33 0.6 33 0.6 100 100 W 12 19 29.77 1008 9 14.48406 0.001 0.001
6:56 am 06:56 Cloudy with Light Snow 32 0 32 0 100 100 WSW 10 17 29.78 1008 9 14.48406 0.001 0.001
7:15 am 07:15 Cloudy with Light Snow 32 0 32 0 100 100 SW 8 13 29.8 1009 9 14.48406 0.001 0.001
7:29 am 07:29 Cloudy with Light Snow 32 0 32 0 100 100 SW 8 13 29.8 1009 9 14.48406 0.001 0.001
7:56 am 07:56 Cloudy with Light Snow 32 0 32 0 100 100 SW 9 15 29.78 1009 8 12.87472 0.001 0.001
8:38 am 08:38 Cloudy with Light Wintry Mix 32 0 32 0 100 100 WSW 8 13 29.81 1010 10 16.0934 0.001 0.001
8:56 am 08:56 Cloudy with Light Snow 32 0 32 0 100 100 WSW 8 13 29.8 1009 7 11.26538 0.001 0.001
9:56 am 09:56 Cloudy with Light Snow 32 0 32 0 100 100 SW 6 9 29.8 1009 3 4.82802 0.001 0.001
10:56 am 10:56 Cloudy with Light Snow 33 0.6 33 0.6 100 100 SW 9 15 29.8 1009 4 6.43736 0.001 0.001
11:28 am 11:28 Cloudy with Light Snow 34 1 32 0 93 93 WSW 9 15 29.8 1009 9 14.48406 0.001 0.001
11:56 am 11:56 Cloudy with Light Snow 33 0.6 32 0 96 96 SW 8 13 29.77 1008 8 12.87472 0.001 0.001
12:15 pm 12:15 Cloudy with Light Snow 34 1 34 1 100 100 SW 8 13 29.78 1008 2.5 4.02335 0.001 0.001
12:27 pm 12:27 Cloudy with Light Snow 34 1 34 1 100 100 SW 8 13 29.77 1008 1.5 2.41401 0.001 0.001
12:46 pm 12:46 Cloudy with Light Snow 32 0 32 0 100 100 SW 8 13 29.77 1008 1 1.60934 0.001 0.001
12:56 pm 12:56 Cloudy with Light Snow 32 0 32 0 100 100 WSW 7 11 29.75 1007 1 1.60934 0.01 0.254
1:13 pm 13:13 Cloudy with Light Snow 32 0 32 0 100 100 WSW 12 19 29.76 1008 1.5 2.41401 0.001 0.001
1:26 pm 13:26 Cloudy with Light Snow 32 0 32 0 100 100 WSW 9 15 29.76 1008 1.25 2.011675 0.001 0.001
1:33 pm 13:33 Cloudy with Light Snow 32 0 32 0 100 100 SW 9 15 29.75 1008 1 1.60934 0.001 0.001
1:42 pm 13:42 Cloudy with Light Snow 32 0 32 0 100 100 SW 8 13 29.75 1008 1 1.60934 0.001 0.001
1:49 pm 13:49 Cloudy with Light Snow 32 0 32 0 100 100 SW 7 11 29.75 1008 1.25 2.011675 0.001 0.001
1:56 pm 13:56 Cloudy with Light Snow 32 0 32 0 100 100 SW 8 13 29.73 1007 1 1.60934 0.001 0.001
2:07 pm 14:07 Cloudy with Light Snow 32 0 32 0 100 100 WSW 8 13 29.75 1008 1.5 2.41401 0.001 0.001
2:56 pm 14:56 Cloudy with Light Snow 33 0.6 33 0.6 100 100 SW 9 15 29.72 1007 2.5 4.02335 0.01 0.254
3:05 pm 15:05 Cloudy with Light Snow 34 1 34 1 100 100 SW 7 11 29.74 1007 5 8.0467 0.001 0.001
3:40 pm 15:40 Cloudy with Light Snow 34 1 34 1 100 100 SW 8 13 29.74 1007 2.5 4.02335 0.001 0.001
3:56 pm 15:56 Cloudy with Light Snow 33 0.6 33 0.6 100 100 SW 9 15 29.72 1007 4 6.43736 0.001 0.001
4:04 pm 16:04 Cloudy with Light Snow 34 1 34 1 100 100 SW 8 13 29.74 1007 2 3.21868 0.001 0.001
4:10 pm 16:10 Cloudy with Light Snow 34 1 34 1 100 100 SW 7 11 29.74 1007 1.5 2.41401 0.001 0.001
4:17 pm 16:17 Cloudy with Light Snow 34 1 34 1 100 100 WSW 8 13 29.75 1007 1 1.60934 0.001 0.001
4:22 pm 16:22 Cloudy with Light Snow 34 1 34 1 100 100 SW 14 22 29.74 1007 1.25 2.011675 0.001 0.001
4:51 pm 16:51 Cloudy with Light Snow 32 0 32 0 100 100 W 13 20 29.76 1008 3 4.82802 0.01 0.254
4:56 pm 16:56 Cloudy with Light Snow 32 0 32 0 100 100 W 9 15 29.74 1007 8 12.87472 0.01 0.254
5:03 pm 17:03 Cloudy with Light Snow 32 0 32 0 100 100 W 10 17 29.76 1008 8 12.87472 0.001 0.001
5:36 pm 17:36 Cloudy with Light Snow 32 0 32 0 100 100 WSW 12 19 29.77 1008 6 9.65604 0.001 0.001
5:56 pm 17:56 Cloudy with Light Snow 32 0 32 0 100 100 WSW 9 15 29.76 1008 6 9.65604 0.001 0.001
6:06 pm 18:06 Cloudy with Light Snow 32 0 32 0 100 100 W 10 17 29.78 1009 2.5 4.02335 0.001 0.001
6:19 pm 18:19 Cloudy with Light Snow 32 0 32 0 100 100 W 9 15 29.78 1009 7 11.26538 0.001 0.001
6:37 pm 18:37 Cloudy with Light Snow 32 0 32 0 100 100 W 8 13 29.78 1009 7 11.26538 0.001 0.001
6:56 pm 18:56 Cloudy with Light Snow 32 0 32 0 100 100 W 8 13 29.77 1008 6 9.65604 0.01 0.254
7:08 pm 19:08 Cloudy with Light Snow 32 0 32 0 100 100 W 8 13 29.79 1009 6 9.65604 0.001 0.001
7:42 pm 19:42 Cloudy with Light Snow 30 -1 30 -1 100 100 W 8 13 29.8 1009 9 14.48406 0.001 0.001
7:45 pm 19:45 Cloudy with Light Snow 30 -1 30 -1 100 100 W 8 13 29.8 1009 9 14.48406 0.001 0.001
7:56 pm 19:56 Cloudy with Light Snow 31 -0.6 31 -0.6 100 100 WNW 7 11 29.78 1008 9 14.48406 0.001 0.001
8:28 pm 20:28 Cloudy with Light Snow 30 -1 30 -1 100 100 W 7 11 29.8 1009 9 14.48406 0.001 0.001
8:48 pm 20:48 Cloudy with Light Wintry Mix 30 -1 30 -1 100 100 W 7 11 29.8 1009 9 14.48406 0.001 0.001
8:56 pm 20:56 Cloudy with Light Snow 31 -0.6 30 -1.1 96 96 WNW 8 13 29.77 1008 10 16.0934 0.001 0.001
9:15 pm 21:15 Cloudy 30 -1 30 -1 100 100 W 7 11 29.8 1009 9 14.48406 0.001 0.001
9:49 pm 21:49 Cloudy 30 -1 28 -2 93 93 W 9 15 29.81 1009 10 16.0934 0.001 0.001
9:56 pm 21:56 Cloudy 30 -1.1 29 -1.7 96 96 W 9 15 29.78 1009 10 16.0934 0.001 0.001
10:56 pm 22:56 Cloudy with Light Snow 30 -1.1 29 -1.7 96 96 W 8 13 29.78 1009 9 14.48406 0.001 0.001
11:56 pm 23:56 Cloudy with Light Snow 30 -1.1 29 -1.7 96 96 W 9 15 29.79 1009 9 14.48406 0.001 0.001

Powered by AerisWeather